EW4172 Weather Reports


Display with metric or nautical units.
time (UTC)temp
F
wind
direction
speed
MPH
gust
MPH
rain 1hr
in
rain 24hr
in
rain mn
in
humidity
%
barometer
mb
20221130213521 52 146 2.0 8.0 0.00 0.00 0.00 30 1019.5
20221130213017 52 221 2.0 8.0 0.00 0.00 0.00 30 1019.6
20221130212518 51 236 2.0 6.0 0.00 0.00 0.00 30 1019.7
20221130212016 52 198 3.0 7.0 0.00 0.00 0.00 30 1019.7
20221130211517 52 203 1.0 7.0 0.00 0.00 0.00 29 1019.7
20221130211016 52 150 1.0 7.0 0.00 0.00 0.00 29 1019.7
20221130210514 52 159 2.0 6.0 0.00 0.00 0.00 29 1019.7
20221130210015 51 229 1.0 6.0 0.00 0.00 0.00 30 1019.8
20221130205511 51 210 1.0 3.0 0.00 0.00 0.00 30 1019.8
20221130205011 50 235 0.0 3.0 0.00 0.00 0.00 30 1020.0
20221130204520 51 213 0.0 6.0 0.00 0.00 0.00 29 1019.9
20221130204011 50 182 0.0 5.0 0.00 0.00 0.00 30 1019.9
20221130203509 50 153 1.0 5.0 0.00 0.00 0.00 30 1020.0
20221130203008 50 215 1.0 4.0 0.00 0.00 0.00 30 1020.0
20221130202508 49 226 0.0 3.0 0.00 0.00 0.00 29 1020.3
20221130202007 49 227 0.0 3.0 0.00 0.00 0.00 29 1020.4
20221130201511 49 217 0.0 3.0 0.00 0.00 0.00 29 1020.5
20221130201006 49 277 0.0 0.0 0.00 0.00 0.00 28 1020.5
20221130200505 49 324 0.0 1.0 0.00 0.00 0.00 28 1020.5
20221130200005 49 202 0.0 1.0 0.00 0.00 0.00 29 1020.6
20221130195503 48 196 0.0 1.0 0.00 0.00 0.00 29 1020.7
20221130195006 48 176 0.0 3.0 0.00 0.00 0.00 29 1020.8
20221130194506 47 262 0.0 3.0 0.00 0.00 0.00 29 1020.9
20221130194004 46 262 0.0 3.0 0.00 0.00 0.00 30 1021.0
20221130193503 47 311 0.0 1.0 0.00 0.00 0.00 29 1021.1
20221130193000 47 235 0.0 1.0 0.00 0.00 0.00 29 1021.3
20221130192559 46 163 0.0 3.0 0.00 0.00 0.00 30 1021.4
20221130192103 45 250 0.0 3.0 0.00 0.00 0.00 29 1021.5
20221130191603 46 244 0.0 1.0 0.00 0.00 0.00 29 1021.5
20221130191100 45 278 0.0 0.0 0.00 0.00 0.00 29 1021.6
20221130190556 45 294 0.0 1.0 0.00 0.00 0.00 31 1021.6
20221130190103 45 287 0.0 1.0 0.00 0.00 0.00 30 1021.8
20221130185554 44 239 0.0 0.0 0.00 0.00 0.00 30 1021.9
20221130185055 44 314 0.0 0.0 0.00 0.00 0.00 30 1022.0
20221130184554 44 280 0.0 2.0 0.00 0.00 0.00 30 1022.1
20221130184055 44 295 0.0 2.0 0.00 0.00 0.00 29 1022.2
20221130183554 45 245 0.0 1.0 0.00 0.00 0.00 29 1022.6
20221130183052 45 255 0.0 2.0 0.00 0.00 0.00 30 1022.8
20221130182551 44 164 0.0 2.0 0.00 0.00 0.00 30 1022.8
20221130182051 44 169 0.0 1.0 0.00 0.00 0.00 30 1022.9
20221130181549 44 211 0.0 1.0 0.00 0.00 0.00 30 1023.1
20221130181048 43 228 0.0 3.0 0.00 0.00 0.00 32 1023.1
20221130180547 43 147 0.0 3.0 0.00 0.00 0.00 32 1023.3
20221130180045 43 253 0.0 0.0 0.00 0.00 0.00 32 1023.4
20221130175544 42 219 0.0 1.0 0.00 0.00 0.00 33 1023.5
20221130175042 42 248 0.0 2.0 0.00 0.00 0.00 33 1023.6
20221130174543 40 147 0.0 2.0 0.00 0.00 0.00 35 1023.6
20221130174041 40 312 0.0 2.0 0.00 0.00 0.00 35 1023.7
20221130173540 40 309 0.0 2.0 0.00 0.00 0.00 35 1023.7
20221130173041 40 316 0.0 2.0 0.00 0.00 0.00 35 1023.6
20221130172538 39 310 0.0 3.0 0.00 0.00 0.00 36 1023.7
20221130172041 39 317 0.0 3.0 0.00 0.00 0.00 36 1023.7
20221130171536 38 309 0.0 3.0 0.00 0.00 0.00 37 1023.6
20221130171038 38 304 0.0 3.0 0.00 0.00 0.00 37 1023.5
20221130170538 38 318 0.0 1.0 0.00 0.00 0.00 38 1023.5
20221130170033 38 309 0.0 2.0 0.00 0.00 0.00 39 1023.5
20221130165534 37 308 0.0 3.0 0.00 0.00 0.00 39 1023.6
20221130165033 37 280 0.0 3.0 0.00 0.00 0.00 39 1023.7
20221130164536 36 308 0.0 3.0 0.00 0.00 0.00 41 1023.6
20221130164033 36 307 0.0 3.0 0.00 0.00 0.00 42 1023.5
20221130163634 35 290 1.0 5.0 0.00 0.00 0.00 42 1023.6
20221130162027 34 300 0.0 2.0 0.00 0.00 0.00 42 1023.7
20221130161529 35 296 0.0 3.0 0.00 0.00 0.00 42 1023.7
20221130161028 35 280 1.0 3.0 0.00 0.00 0.00 41 1023.8
20221130160529 36 295 0.0 2.0 0.00 0.00 0.00 40 1023.7
20221130160027 37 308 0.0 2.0 0.00 0.00 0.00 40 1023.7
20221130155525 37 107 0.0 0.0 0.00 0.00 0.00 40 1023.7
20221130155024 36 107 0.0 0.0 0.00 0.00 0.00 42 1023.7
20221130154524 34 107 0.0 0.0 0.00 0.00 0.00 44 1023.7
20221130154023 33 138 0.0 0.0 0.00 0.00 0.00 45 1023.7
20221130153522 33 144 0.0 1.0 0.00 0.00 0.00 45 1023.7
20221130153027 32 144 0.0 2.0 0.00 0.00 0.00 46 1023.9
20221130152522 31 219 0.0 2.0 0.00 0.00 0.00 46 1023.9
20221130152023 31 160 0.0 3.0 0.00 0.00 0.00 46 1023.9
20221130151522 32 233 0.0 3.0 0.00 0.00 0.00 47 1023.8
20221130151021 32 210 0.0 0.0 0.00 0.00 0.00 47 1023.7
20221130150520 31 191 0.0 0.0 0.00 0.00 0.00 48 1023.7
20221130150020 30 143 0.0 0.0 0.00 0.00 0.00 49 1023.7
20221130145519 30 128 0.0 0.0 0.00 0.00 0.00 50 1023.5
20221130145018 29 134 0.0 0.0 0.00 0.00 0.00 51 1023.4
20221130144519 28 134 0.0 0.0 0.00 0.00 0.00 52 1023.4
20221130144021 28 165 0.0 0.0 0.00 0.00 0.00 53 1023.5
20221130143517 28 117 0.0 0.0 0.00 0.00 0.00 54 1023.3
20221130143017 28 117 0.0 0.0 0.00 0.00 0.00 54 1023.3
20221130142517 28 139 0.0 0.0 0.00 0.00 0.00 54 1023.2
20221130142016 29 128 0.0 0.0 0.00 0.00 0.00 54 1023.2
20221130141515 29 128 0.0 0.0 0.00 0.00 0.00 53 1023.1
20221130141016 30 44 0.0 0.0 0.00 0.00 0.00 54 1022.9
20221130140513 30 44 0.0 0.0 0.00 0.00 0.00 52 1023.0
20221130140026 30 43 0.0 0.0 0.00 0.00 0.00 51 1022.8
20221130135513 29 148 0.0 1.0 0.00 0.00 0.00 51 1022.8
20221130135012 30 156 0.0 1.0 0.00 0.00 0.00 49 1022.8
20221130134510 31 356 0.0 2.0 0.00 0.00 0.00 48 1022.6
20221130134010 32 42 0.0 3.0 0.00 0.00 0.00 47 1022.4
20221130133514 32 41 1.0 6.0 0.00 0.00 0.00 47 1022.4
20221130133010 31 24 1.0 6.0 0.00 0.00 0.00 48 1022.4
20221130132510 31 65 0.0 3.0 0.00 0.00 0.00 49 1022.4
20221130132011 30 37 1.0 5.0 0.00 0.00 0.00 50 1022.2
20221130131510 29 48 1.0 5.0 0.00 0.00 0.00 53 1022.1
20221130131010 28 53 2.0 3.0 0.00 0.00 0.00 56 1022.2
20221130130509 27 45 0.0 2.0 0.00 0.00 0.00 56 1022.2
20221130130013 27 44 0.0 0.0 0.00 0.00 0.00 57 1022.4
20221130125509 26 49 0.0 0.0 0.00 0.00 0.00 57 1022.4
20221130125007 26 74 0.0 0.0 0.00 0.00 0.00 58 1022.6
20221130124508 26 75 0.0 0.0 0.00 0.00 0.00 58 1022.5
20221130124007 26 80 0.0 0.0 0.00 0.00 0.00 57 1022.5
20221130123506 26 80 0.0 0.0 0.00 0.00 0.00 58 1022.4
20221130123005 26 80 0.0 0.0 0.00 0.00 0.00 57 1022.4
20221130122505 26 80 0.0 0.0 0.00 0.00 0.00 57 1022.2
20221130122006 26 80 0.0 0.0 0.00 0.00 0.00 57 1022.2
20221130121505 26 76 0.0 0.0 0.00 0.00 0.00 56 1022.3
20221130121005 26 66 0.0 0.0 0.00 0.00 0.00 56 1022.2
20221130120504 26 66 0.0 0.0 0.00 0.00 0.00 55 1022.1
20221130120005 26 66 0.0 0.0 0.00 0.00 0.00 56 1022.1
20221130115503 26 65 0.0 0.0 0.00 0.00 0.00 56 1022.2
20221130115002 26 57 0.0 0.0 0.00 0.00 0.00 56 1022.2
20221130114503 26 59 0.0 0.0 0.00 0.00 0.00 57 1022.2
20221130114003 25 117 0.0 0.0 0.00 0.00 0.00 58 1022.1
20221130113502 25 153 0.0 0.0 0.00 0.00 0.00 57 1022.2
20221130113100 25 153 0.0 0.0 0.00 0.00 0.00 56 1022.2
20221130113001 25 153 0.0 0.0 0.00 0.00 0.00 56 1022.2
20221130112602 26 153 0.0 0.0 0.00 0.00 0.00 55 1022.2
20221130112059 26 153 0.0 0.0 0.00 0.00 0.00 54 1022.3
20221130111557 26 153 0.0 0.0 0.00 0.00 0.00 54 1022.2
20221130111056 27 157 0.0 2.0 0.00 0.00 0.00 54 1022.1
20221130110555 27 139 0.0 2.0 0.00 0.00 0.00 53 1022.2
20221130110057 28 167 0.0 2.0 0.00 0.00 0.00 51 1022.0
20221130105553 30 179 0.0 2.0 0.00 0.00 0.00 48 1022.0
20221130105056 30 71 0.0 3.0 0.00 0.00 0.00 48 1021.8
20221130104551 30 59 0.0 6.0 0.00 0.00 0.00 48 1021.7
20221130104050 29 51 1.0 6.0 0.00 0.00 0.00 49 1021.7
20221130103550 29 43 2.0 5.0 0.00 0.00 0.00 51 1021.6
20221130103057 28 54 0.0 2.0 0.00 0.00 0.00 53 1021.7
20221130102550 27 44 0.0 2.0 0.00 0.00 0.00 54 1021.6
20221130102053 27 45 0.0 0.0 0.00 0.00 0.00 55 1021.7
20221130101550 27 47 0.0 0.0 0.00 0.00 0.00 55 1021.8
20221130101052 27 77 0.0 0.0 0.00 0.00 0.00 56 1021.8
20221130100548 27 86 0.0 0.0 0.00 0.00 0.00 54 1021.8
20221130100049 27 101 0.0 0.0 0.00 0.00 0.00 54 1021.9
20221130095547 27 101 0.0 0.0 0.00 0.00 0.00 56 1021.7
20221130095047 27 135 0.0 0.0 0.00 0.00 0.00 54 1021.7
20221130094547 27 135 0.0 0.0 0.00 0.00 0.00 54 1021.6
20221130094045 27 135 0.0 0.0 0.00 0.00 0.00 55 1021.6
20221130093545 27 135 0.0 0.0 0.00 0.00 0.00 54 1021.6
20221130093052 27 139 0.0 0.0 0.00 0.00 0.00 54 1021.7
20221130092544 27 139 0.0 0.0 0.00 0.00 0.00 53 1021.7
20221130092043 27 139 0.0 0.0 0.00 0.00 0.00 52 1021.6
20221130091542 28 139 0.0 0.0 0.00 0.00 0.00 51 1021.5
20221130091041 28 139 0.0 0.0 0.00 0.00 0.00 51 1021.5
20221130090540 28 139 0.0 0.0 0.00 0.00 0.00 51 1021.5
20221130090052 29 139 0.0 0.0 0.00 0.00 0.00 50 1021.4
20221130085537 29 139 0.0 0.0 0.00 0.00 0.00 50 1021.3
20221130085036 29 139 0.0 0.0 0.00 0.00 0.00 50 1021.1
20221130084536 29 139 0.0 0.0 0.00 0.00 0.00 50 1021.1
20221130084034 29 133 0.0 0.0 0.00 0.00 0.00 49 1021.0
20221130083533 30 43 0.0 1.0 0.00 0.00 0.00 49 1020.9
20221130083041 30 8 0.0 1.0 0.00 0.00 0.00 49 1020.8
20221130082532 30 37 0.0 1.0 0.00 0.00 0.00 50 1020.7
20221130082032 30 26 0.0 0.0 0.00 0.00 0.00 51 1020.7
20221130081532 30 39 0.0 0.0 0.00 0.00 0.00 50 1020.7
20221130081032 30 39 0.0 0.0 0.00 0.00 0.00 50 1020.7
20221130080531 30 39 0.0 0.0 0.00 0.00 0.00 50 1020.6
20221130080031 30 26 0.0 0.0 0.00 0.00 0.00 50 1020.6
20221130075528 30 50 0.0 1.0 0.00 0.00 0.00 49 1020.6
20221130075028 31 51 0.0 1.0 0.00 0.00 0.00 48 1020.6
20221130074529 31 33 0.0 0.0 0.00 0.00 0.00 48 1020.5
20221130074024 31 16 0.0 0.0 0.00 0.00 0.00 47 1020.6
20221130073523 32 16 0.0 0.0 0.00 0.00 0.00 45 1020.5
20221130073022 33 17 0.0 2.0 0.00 0.00 0.00 45 1020.3
20221130072521 33 2 0.0 4.0 0.00 0.00 0.00 44 1020.3
20221130072024 34 13 2.0 6.0 0.00 0.00 0.00 42 1020.2
20221130071526 34 33 2.0 6.0 0.00 0.00 0.00 42 1020.3
20221130071022 33 340 2.0 4.0 0.00 0.00 0.00 44 1020.1
20221130070518 33 360 0.0 4.0 0.00 0.00 0.00 44 1020.3
20221130070016 33 4 1.0 4.0 0.00 0.00 0.00 44 1020.3
20221130065521 32 18 0.0 2.0 0.00 0.00 0.00 46 1020.4
20221130065016 32 25 0.0 2.0 0.00 0.00 0.00 46 1020.3
20221130064515 32 46 0.0 2.0 0.00 0.00 0.00 46 1020.4
20221130064017 33 4 0.0 0.0 0.00 0.00 0.00 45 1020.4
20221130063515 33 15 0.0 2.0 0.00 0.00 0.00 44 1020.2
20221130063015 33 44 0.0 3.0 0.00 0.00 0.00 43 1020.4
20221130062514 34 30 1.0 4.0 0.00 0.00 0.00 43 1020.4
20221130062014 34 352 1.0 5.0 0.00 0.00 0.00 42 1020.4
20221130061514 34 41 2.0 8.0 0.00 0.00 0.00 41 1020.5
20221130061013 34 57 3.0 8.0 0.00 0.00 0.00 40 1020.5
20221130060513 34 25 2.0 10.0 0.00 0.00 0.00 40 1020.5
20221130060026 34 37 4.0 10.0 0.00 0.00 0.00 40 1020.5
20221130055512 34 351 3.0 9.0 0.00 0.00 0.00 40 1020.5
20221130055011 34 28 3.0 8.0 0.00 0.00 0.00 40 1020.6
20221130054510 34 349 4.0 10.0 0.00 0.00 0.00 40 1020.6
20221130054008 34 343 3.0 8.0 0.00 0.00 0.00 41 1020.5
20221130053508 34 9 3.0 7.0 0.00 0.00 0.00 43 1020.5
20221130053008 33 23 1.0 4.0 0.00 0.00 0.00 44 1020.5
20221130052507 33 32 1.0 3.0 0.00 0.00 0.00 46 1020.4
20221130052007 33 23 1.0 3.0 0.00 0.00 0.00 45 1020.4
20221130051506 33 41 0.0 2.0 0.00 0.00 0.00 46 1020.3
20221130051004 33 45 0.0 2.0 0.00 0.00 0.00 46 1020.3
20221130050503 33 39 0.0 2.0 0.00 0.00 0.00 45 1020.2
20221130050001 33 39 0.0 3.0 0.00 0.00 0.00 45 1020.1
20221130045601 34 22 0.0 3.0 0.00 0.00 0.00 44 1020.1
20221130045101 34 45 1.0 3.0 0.00 0.00 0.00 44 1020.0
20221130044602 34 46 0.0 0.0 0.00 0.00 0.00 45 1020.0
20221130044058 34 22 0.0 0.0 0.00 0.00 0.00 43 1019.9
20221130043556 34 4 0.0 1.0 0.00 0.00 0.00 43 1019.8
20221130043056 35 360 0.0 3.0 0.00 0.00 0.00 43 1019.8
20221130042555 35 11 0.0 3.0 0.00 0.00 0.00 43 1019.7
20221130042056 35 6 1.0 7.0 0.00 0.00 0.00 42 1019.6
20221130041603 35 27 2.0 7.0 0.00 0.00 0.00 42 1019.6
20221130041054 35 17 1.0 5.0 0.00 0.00 0.00 41 1019.5
20221130040557 36 15 1.0 5.0 0.00 0.00 0.00 41 1019.7
20221130040058 36 15 1.0 6.0 0.00 0.00 0.00 42 1019.6
20221130035553 36 14 1.0 6.0 0.00 0.00 0.00 41 1019.6
20221130035053 35 352 1.0 5.0 0.00 0.00 0.00 42 1019.4
20221130034606 35 14 2.0 5.0 0.00 0.00 0.00 42 1019.4
20221130034052 36 347 1.0 10.0 0.00 0.00 0.00 42 1019.4
20221130033550 36 8 3.0 10.0 0.00 0.00 0.00 42 1019.3
20221130033051 36 346 1.0 4.0 0.00 0.00 0.00 43 1019.2
20221130032550 36 352 0.0 3.0 0.00 0.00 0.00 43 1019.1
20221130032049 36 61 0.0 5.0 0.00 0.00 0.00 43 1019.1
20221130031551 36 25 1.0 6.0 0.00 0.00 0.00 43 1018.9
20221130031047 36 356 1.0 6.0 0.00 0.00 0.00 43 1018.8
20221130030548 36 13 0.0 5.0 0.00 0.00 0.00 43 1018.8
20221130030048 36 29 0.0 5.0 0.00 0.00 0.00 43 1018.6
20221130025545 36 45 0.0 6.0 0.00 0.00 0.00 42 1018.6
20221130025044 36 39 1.0 7.0 0.00 0.00 0.00 42 1018.5
20221130024547 37 10 3.0 7.0 0.00 0.00 0.00 42 1018.4
20221130024051 37 350 3.0 8.0 0.00 0.00 0.00 42 1018.4
20221130023543 37 15 3.0 8.0 0.00 0.00 0.00 42 1018.3
20221130023042 37 354 3.0 8.0 0.00 0.00 0.00 42 1018.2
20221130022541 37 347 2.0 9.0 0.00 0.00 0.00 41 1018.1
20221130022044 37 352 2.0 8.0 0.00 0.00 0.00 41 1018.0
20221130021540 37 345 1.0 12.0 0.00 0.00 0.00 42 1017.8
20221130021039 37 16 4.0 12.0 0.00 0.00 0.00 42 1017.7
20221130020538 37 11 3.0 9.0 0.00 0.00 0.00 42 1017.5
20221130020037 37 345 2.0 14.0 0.00 0.00 0.00 42 1017.4
20221130015537 38 342 3.0 14.0 0.00 0.00 0.00 42 1017.5
20221130015036 38 340 3.0 10.0 0.00 0.00 0.00 42 1017.4
20221130014536 38 334 5.0 10.0 0.00 0.00 0.00 42 1017.2
20221130014035 38 18 3.0 11.0 0.00 0.00 0.00 42 1017.1
20221130013535 38 342 3.0 14.0 0.00 0.00 0.00 42 1017.1
20221130013035 38 28 6.0 14.0 0.00 0.00 0.00 42 1017.1
20221130012534 38 8 5.0 13.0 0.00 0.00 0.00 42 1017.1
20221130012035 38 318 4.0 12.0 0.00 0.00 0.00 42 1016.9
20221130011533 38 302 4.0 12.0 0.00 0.00 0.00 42 1016.9
20221130011033 38 20 5.0 12.0 0.00 0.00 0.00 42 1016.7
20221130010530 39 4 4.0 11.0 0.00 0.00 0.00 42 1016.6
20221130010033 39 15 3.0 11.0 0.00 0.00 0.00 42 1016.5
20221130005528 39 340 2.0 11.0 0.00 0.00 0.00 42 1016.4
20221130005028 39 334 4.0 11.0 0.00 0.00 0.00 42 1016.4
20221130004529 39 28 3.0 11.0 0.00 0.00 0.00 42 1016.3
20221130004027 40 347 4.0 10.0 0.00 0.00 0.00 42 1016.3
20221130003526 40 342 3.0 9.0 0.00 0.00 0.00 42 1016.1
20221130003024 40 345 4.0 8.0 0.00 0.00 0.00 42 1015.9
20221130002528 40 354 2.0 7.0 0.00 0.00 0.00 42 1015.7
20221130002025 40 15 3.0 9.0 0.00 0.00 0.00 42 1015.6
20221130001523 41 4 3.0 9.0 0.00 0.00 0.00 42 1015.4
20221130001021 41 339 1.0 9.0 0.00 0.00 0.00 42 1015.4
20221130000521 41 29 2.0 13.0 0.00 0.00 0.00 42 1015.3
20221130000019 41 349 3.0 14.0 0.00 0.00 0.00 42 1015.2
20221129235518 42 16 5.0 14.0 0.00 0.00 0.00 41 1014.9
20221129235016 42 314 6.0 14.0 0.00 0.00 0.00 41 1014.7
20221129234518 42 326 5.0 14.0 0.00 0.00 0.00 41 1014.7
20221129234016 43 357 6.0 14.0 0.00 0.00 0.00 41 1014.8
20221129233516 43 321 4.0 12.0 0.00 0.00 0.00 41 1014.6
20221129233014 43 295 5.0 12.0 0.00 0.00 0.00 41 1014.4
20221129232514 43 2 4.0 17.0 0.00 0.00 0.00 41 1014.4
20221129232013 44 319 6.0 17.0 0.00 0.00 0.00 40 1014.3
20221129231636 44 20 5.0 15.0 0.00 0.00 0.00 40 1014.2
20221129231012 44 355 5.0 15.0 0.00 0.00 0.00 40 1013.9
20221129230513 45 2 3.0 14.0 0.00 0.00 0.00 40 1013.8
20221129230009 45 13 6.0 12.0 0.00 0.00 0.00 39 1013.7
20221129225509 45 338 4.0 10.0 0.00 0.00 0.00 39 1013.4
20221129225008 45 313 4.0 9.0 0.00 0.00 0.00 39 1013.3
20221129224507 45 347 1.0 11.0 0.00 0.00 0.00 39 1013.2
20221129224008 46 330 5.0 11.0 0.00 0.00 0.00 39 1013.3
20221129223505 46 15 4.0 11.0 0.00 0.00 0.00 39 1013.0
20221129223007 46 306 4.0 11.0 0.00 0.00 0.00 39 1012.9
20221129222503 46 19 4.0 14.0 0.00 0.00 0.00 39 1012.8
20221129222003 46 301 6.0 0.0 0.00 0.00 0.00 39 1012.7
20221129221503 46 348 3.0 18.0 0.00 0.00 0.00 39 1012.7
20221129221002 46 354 9.0 18.0 0.00 0.00 0.00 39 1012.5
20221129220503 47 303 8.0 16.0 0.00 0.00 0.00 38 1012.4
20221129220001 47 316 7.0 16.0 0.00 0.00 0.00 38 1012.3
20221129215600 47 307 9.0 16.0 0.00 0.00 0.00 38 1012.2
20221129215100 47 358 3.0 15.0 0.00 0.00 0.00 39 1012.0
20221129214559 47 295 7.0 18.0 0.00 0.00 0.00 39 1012.0
20221129214059 47 300 9.0 18.0 0.00 0.00 0.00 38 1011.9